Weather History for Menomonie, WI

Change the Weather History Date:

Monday, July 22, 2013

  Actual Average (KEAU) Record (KEAU)
Temperature  
Mean Temperature 74 °F 72 °F  
Max Temperature 88 °F 83 °F 104 °F (1934)
Min Temperature 61 °F 60 °F 45 °F (1947)
Degree Days  
Heating Degree Days 0 0  
Month to date heating degree days 2  
Since 1 June heating degree days 64  
Since 1 July heating degree days 2  
Cooling Degree Days 9 7  
Month to date cooling degree days 153  
Year to date cooling degree days 305  
Since 1 June cooling degree days 273  
Growing Degree Days 24 (Base 50)    
Moisture  
Dew Point 63 °F    
Average Humidity 73    
Maximum Humidity 97    
Minimum Humidity 44    
Precipitation  
Precipitation 0.00 in 0.12 in 2.07 in (2007)
Month to date precipitation 2.73  
Year to date precipitation 16.50  
Snow  
Snow 0.00 in 0.00 in 0.00 in ()
Month to date snowfall 0.0  
Since 1 June snowfall 0.0  
Since 1 July snowfall 0.0  
Snow Depth -    
Sea Level Pressure  
Sea Level Pressure 29.75 in    
Wind  
Wind Speed 7 mph (SSW)    
Max Wind Speed 17 mph    
Max Gust Speed 22 mph    
Visibility 10 miles    
Events Thunderstorm    
T = Trace of Precipitation, MM = Missing Value Source: NWS Daily Summary

Daily Weather History Graph

Daily Weather History Graph

Search for Another Location

Airport:

Trip Planner

Search our weather history database for the weather conditions in past years. The results will help you decide how hot, cold, wet, or windy it might be!

Date:

Astronomy

Jul. 22, 2013 Rise Set
Actual Time 5:42 AM CDT 8:44 PM CDT
Civil Twilight 5:07 AM CDT 9:19 PM CDT
Nautical Twilight 4:22 AM CDT 10:04 PM CDT
Astronomical Twilight 3:28 AM CDT 10:57 PM CDT
Moon 8:26 PM CDT (7/22) 5:42 AM CDT (7/22)
Length of Visible Light 16h 11m
Length of Day
15h 02m
Full, 100% of the Moon is Illuminated
Jul 22
Full
Jul 22
Full
Jul 29
Last Quarter
Aug 6
New
Aug 14
First Quarter

Hourly Weather History & Observations

Time (CDT) Temp. Heat Index Dew Point Humidity Pressure Visibility Wind Dir Wind Speed Gust Speed Precip Events Conditions
12:15 AM 65.8 °F - 63.1 °F 91% 29.87 in 10.0 mi ESE 5.8 mph - N/A   Overcast
12:35 AM 65.5 °F - 63.1 °F 92% 29.86 in 10.0 mi ESE 5.8 mph - N/A   Overcast
12:55 AM 65.3 °F - 63.0 °F 92% 29.86 in 10.0 mi ESE 4.6 mph - N/A   Mostly Cloudy
1:15 AM 64.6 °F - 62.8 °F 94% 29.86 in 10.0 mi ESE 3.5 mph - N/A   Scattered Clouds
1:35 AM 64.0 °F - 62.6 °F 95% 29.85 in 10.0 mi ESE 3.5 mph - N/A   Clear
1:55 AM 63.7 °F - 62.1 °F 94% 29.85 in 10.0 mi East 3.5 mph - N/A   Clear
2:15 AM 63.5 °F - 61.9 °F 94% 29.84 in 10.0 mi ESE 3.5 mph - N/A   Clear
2:35 AM 62.8 °F - 61.5 °F 96% 29.83 in 10.0 mi ESE 5.8 mph - N/A   Clear
2:55 AM 62.8 °F - 61.7 °F 96% 29.83 in 7.0 mi East 3.5 mph - N/A   Clear
3:15 AM 62.2 °F - 61.0 °F 96% 29.82 in 7.0 mi ESE 5.8 mph - N/A   Mostly Cloudy
3:35 AM 62.2 °F - 61.2 °F 96% 29.81 in 7.0 mi East 3.5 mph - N/A   Scattered Clouds
3:55 AM 62.1 °F - 61.0 °F 96% 29.80 in 7.0 mi ESE 5.8 mph - N/A   Clear
4:15 AM 61.9 °F - 60.8 °F 96% 29.80 in 7.0 mi ESE 4.6 mph - N/A   Clear
4:35 AM 61.9 °F - 60.8 °F 96% 29.78 in 10.0 mi East 4.6 mph - N/A   Clear
4:55 AM 61.7 °F - 60.8 °F 97% 29.78 in 10.0 mi Calm Calm - N/A   Clear
5:15 AM 61.7 °F - 60.8 °F 97% 29.79 in 10.0 mi Calm Calm - N/A   Clear
5:35 AM 61.7 °F - 60.3 °F 95% 29.81 in 10.0 mi Calm Calm - N/A   Clear
5:55 AM 61.9 °F - 60.8 °F 96% 29.82 in 10.0 mi Calm Calm - N/A   Mostly Cloudy
6:35 AM 63.0 °F - 61.7 °F 96% 29.82 in 10.0 mi East 3.5 mph - N/A   Overcast
6:55 AM 63.7 °F - 62.2 °F 95% 29.80 in 10.0 mi ESE 6.9 mph - N/A   Overcast
7:15 AM 64.8 °F - 63.5 °F 96% 29.80 in 7.0 mi SSE 8.1 mph - N/A   Overcast
7:35 AM 65.3 °F - 63.5 °F 94% 29.78 in 5.0 mi SE 6.9 mph - N/A   Overcast
7:55 AM 65.5 °F - 63.5 °F 93% 29.77 in 7.0 mi SSE 9.2 mph - N/A   Overcast
8:35 AM 67.3 °F - 64.2 °F 90% 29.76 in 10.0 mi South 8.1 mph - N/A   Overcast
8:55 AM 68.0 °F - 64.0 °F 87% 29.76 in 10.0 mi South 9.2 mph - N/A   Mostly Cloudy
9:55 AM 71.6 °F - 65.5 °F 81% 29.74 in 10.0 mi SSE 12.7 mph - N/A   Scattered Clouds
10:15 AM 71.6 °F - 65.7 °F 81% 29.74 in 10.0 mi South 9.2 mph - N/A   Overcast
10:35 AM 72.0 °F - 66.2 °F 82% 29.74 in 10.0 mi SSW 8.1 mph - N/A   Overcast
10:55 AM 72.5 °F - 66.7 °F 82% 29.74 in 10.0 mi South 11.5 mph 16.1 mph N/A   Overcast
11:15 AM 74.8 °F - 67.5 °F 78% 29.73 in 10.0 mi South 12.7 mph - N/A   Mostly Cloudy
11:35 AM 75.4 °F - 68.0 °F 78% 29.72 in 10.0 mi South 11.5 mph - N/A   Mostly Cloudy
11:55 AM 76.8 °F - 68.5 °F 75% 29.71 in 10.0 mi South 11.5 mph 16.1 mph N/A   Scattered Clouds
12:15 PM 78.6 °F - 68.5 °F 71% 29.71 in 10.0 mi SSE 10.4 mph 16.1 mph N/A   Scattered Clouds
12:35 PM 79.3 °F - 68.9 °F 70% 29.70 in 10.0 mi SSE 10.4 mph - N/A   Scattered Clouds
12:55 PM 80.6 °F 83.5 °F 68.5 °F 67% 29.69 in 10.0 mi South 11.5 mph 16.1 mph N/A   Scattered Clouds
1:15 PM 82.0 °F 85.5 °F 69.4 °F 65% 29.69 in 10.0 mi South 8.1 mph - N/A   Mostly Cloudy
1:35 PM 83.3 °F 87.1 °F 69.4 °F 63% 29.68 in 10.0 mi South 9.2 mph - N/A   Scattered Clouds
1:55 PM 84.6 °F 88.8 °F 69.8 °F 61% 29.68 in 10.0 mi SSW 13.8 mph 18.4 mph N/A   Scattered Clouds
2:15 PM 83.7 °F 88.0 °F 70.2 °F 64% 29.68 in 10.0 mi South 11.5 mph - N/A   Mostly Cloudy
2:35 PM 83.1 °F 87.6 °F 70.5 °F 66% 29.68 in 10.0 mi SSW 8.1 mph 17.3 mph N/A   Overcast
2:55 PM 86.9 °F 92.5 °F 70.9 °F 59% 29.67 in 10.0 mi SSW 11.5 mph - N/A   Scattered Clouds
3:15 PM 87.6 °F 93.5 °F 71.1 °F 58% 29.66 in 10.0 mi SW 16.1 mph - N/A Thunderstorm Thunderstorm
3:35 PM 87.3 °F 91.6 °F 69.1 °F 55% 29.67 in 10.0 mi WSW 16.1 mph 21.9 mph N/A   Scattered Clouds
3:55 PM 85.6 °F 88.5 °F 67.3 °F 54% 29.67 in 10.0 mi West 17.3 mph 20.7 mph N/A   Mostly Cloudy
4:15 PM 86.7 °F 89.0 °F 66.2 °F 50% 29.66 in 10.0 mi West 12.7 mph - N/A   Scattered Clouds
4:35 PM 86.9 °F 89.3 °F 66.4 °F 50% 29.65 in 10.0 mi WSW 10.4 mph - N/A   Clear
4:55 PM 87.4 °F 89.1 °F 64.9 °F 47% 29.66 in 10.0 mi West 12.7 mph 18.4 mph N/A   Clear
5:15 PM 85.6 °F 87.9 °F 66.0 °F 52% 29.67 in 10.0 mi WSW 5.8 mph - N/A   Scattered Clouds
5:35 PM 84.7 °F 86.3 °F 64.6 °F 51% 29.66 in 10.0 mi West 8.1 mph 17.3 mph N/A   Scattered Clouds
5:55 PM 86.0 °F 87.9 °F 65.1 °F 50% 29.67 in 10.0 mi WNW 11.5 mph 16.1 mph N/A   Scattered Clouds
6:15 PM 84.0 °F 86.0 °F 65.5 °F 54% 29.68 in 10.0 mi WNW 11.5 mph - N/A   Mostly Cloudy
6:35 PM 85.3 °F 85.4 °F 61.3 °F 44% 29.68 in 10.0 mi WNW 13.8 mph 19.6 mph N/A   Mostly Cloudy
6:55 PM 84.2 °F 84.4 °F 60.6 °F 45% 29.69 in 10.0 mi WNW 10.4 mph 18.4 mph N/A Thunderstorm Thunderstorm
7:15 PM 83.5 °F 83.6 °F 60.1 °F 45% 29.69 in 10.0 mi WNW 11.5 mph - N/A   Clear
7:35 PM 82.4 °F 82.5 °F 59.4 °F 45% 29.70 in 10.0 mi WNW 11.5 mph - N/A   Clear
7:55 PM 81.0 °F 81.5 °F 59.5 °F 48% 29.71 in 10.0 mi NW 12.7 mph 19.6 mph N/A   Clear
8:15 PM 78.8 °F - 58.8 °F 50% 29.72 in 10.0 mi NW 17.3 mph - N/A   Clear
8:35 PM 77.4 °F - 57.7 °F 51% 29.72 in 10.0 mi WNW 11.5 mph - N/A   Clear
8:55 PM 76.1 °F - 57.4 °F 52% 29.73 in 10.0 mi WNW 10.4 mph 17.3 mph N/A   Clear
9:15 PM 75.2 °F - 57.7 °F 54% 29.74 in 10.0 mi NW 11.5 mph 19.6 mph N/A   Clear
9:35 PM 73.6 °F - 57.4 °F 57% 29.76 in 10.0 mi NW 13.8 mph - N/A   Clear
9:55 PM 72.5 °F - 57.0 °F 58% 29.77 in 10.0 mi NNW 12.7 mph 17.3 mph N/A   Clear
10:15 PM 71.2 °F - 55.9 °F 58% 29.77 in 10.0 mi NNW 12.7 mph - N/A   Clear
10:35 PM 69.6 °F - 55.8 °F 61% 29.78 in 10.0 mi NW 11.5 mph - N/A   Clear
10:55 PM 68.5 °F - 54.7 °F 61% 29.79 in 10.0 mi NNW 10.4 mph - N/A   Clear
11:15 PM 68.0 °F - 54.0 °F 61% 29.80 in 10.0 mi NW 6.9 mph - N/A   Clear
11:35 PM 67.1 °F - 53.6 °F 62% 29.81 in 10.0 mi NW 6.9 mph - N/A   Clear
11:55 PM 66.9 °F - 52.9 °F 61% 29.82 in 10.0 mi WNW 8.1 mph - N/A   Clear